Terminal Aerodrome Forecast
Issued by NWS Duluth, MN

Home | Current Version | Previous Version | Text Only | Print | Product List | Glossary On
Versions: 1 2 3 4 5 6 7 8 9 10 11 12 13 14 15 16 17 18 19 20 21 22 23 24 25 26 27
000
FTUS43 KDLH 291002 AAA
TAFINL
TAF AMD
KINL 291002Z 2910/3006 15004KT P6SM OVC070
     FM291600 27008KT P6SM SCT015 OVC050
     FM291900 29009KT P6SM SCT050 BKN150
     FM292300 30007KT P6SM SKC=

USA.gov is the U.S. government's official web portal to all federal, state and local government web resources and services.